| time (UTC) | temp C | wind direction | speed KPH | gust KPH | rain 1hr cm | rain 24hr cm | rain mn cm | humidity % | barometer mb |
| 20260904023013 | 26 | 205 | 0.0 | 0.0 | 0.00 | 0.00 | 0.00 | 91 | 1012.3 |
| 20260904021516 | 26 | 205 | 0.0 | 0.0 | 0.00 | 0.00 | 0.00 | 90 | 1012.1 |
| 20260904020012 | 26 | 205 | 0.0 | 0.0 | 0.00 | 0.00 | 0.00 | 90 | 1012.1 |
| 20260904014515 | 26 | 205 | 0.0 | 0.0 | 0.00 | 0.00 | 0.00 | 90 | 1011.9 |
| 20260904013011 | 26 | 205 | 0.0 | 0.0 | 0.00 | 0.00 | 0.00 | 89 | 1011.7 |
| 20260904011517 | 26 | 205 | 0.0 | 0.0 | 0.00 | 0.00 | 0.00 | 88 | 1011.2 |
| 20260904010011 | 27 | 205 | 0.0 | 0.0 | 0.00 | 0.00 | 0.00 | 87 | 1010.8 |
| 20260904004510 | 27 | 205 | 0.0 | 0.0 | 0.00 | 0.00 | 0.00 | 87 | 1010.5 |
| 20260904003012 | 27 | 211 | 0.0 | 0.0 | 0.00 | 0.00 | 0.00 | 86 | 1010.3 |
| 20260904001511 | 27 | 211 | 0.0 | 1.6 | 0.00 | 0.00 | 0.00 | 85 | 1010.4 |
| 20260904000006 | 28 | 210 | 0.0 | 3.2 | 0.00 | 0.00 | 0.00 | 84 | 1010.7 |
| 20260903234504 | 28 | 218 | 0.0 | 0.0 | 0.00 | 0.00 | 0.00 | 82 | 1010.8 |
| 20260903233003 | 29 | 219 | 0.0 | 0.0 | 0.00 | 0.00 | 0.00 | 81 | 1010.9 |
| 20260903231507 | 30 | 219 | 0.0 | 0.0 | 0.00 | 0.00 | 0.00 | 79 | 1011.0 |
| 20260903230001 | 30 | 200 | 0.0 | 3.2 | 0.00 | 0.00 | 0.00 | 76 | 1011.2 |
| 20260903224622 | 31 | 200 | 0.0 | 3.2 | 0.00 | 0.00 | 0.00 | 73 | 1011.2 |
| 20260903223059 | 31 | 203 | 0.0 | 6.4 | 0.00 | 0.00 | 0.00 | 68 | 1011.3 |
| 20260903221559 | 31 | 207 | 1.6 | 4.8 | 0.00 | 0.00 | 0.00 | 67 | 1011.5 |
| 20260903220059 | 31 | 191 | 1.6 | 8.0 | 0.00 | 0.00 | 0.00 | 66 | 1011.5 |
| 20260903214610 | 32 | 188 | 1.6 | 4.8 | 0.00 | 0.00 | 0.00 | 70 | 1011.5 |
| 20260903213102 | 32 | 211 | 1.6 | 9.7 | 0.00 | 0.00 | 0.00 | 63 | 1011.5 |
| 20260903211555 | 32 | 200 | 3.2 | 9.7 | 0.00 | 0.00 | 0.00 | 61 | 1011.5 |
| 20260903210123 | 32 | 200 | 0.0 | 6.4 | 0.00 | 0.00 | 0.00 | 66 | 1011.7 |
| 20260903204552 | 32 | 183 | 0.0 | 6.4 | 0.00 | 0.00 | 0.00 | 67 | 1011.9 |
| 20260903203106 | 32 | 211 | 1.6 | 11.3 | 0.00 | 0.00 | 0.00 | 64 | 1012.0 |
| 20260903201548 | 32 | 202 | 0.0 | 6.4 | 0.00 | 0.00 | 0.00 | 67 | 1012.0 |
| 20260903200051 | 32 | 234 | 0.0 | 4.8 | 0.00 | 0.00 | 0.00 | 64 | 1012.1 |
| 20260903194543 | 32 | 202 | 0.0 | 4.8 | 0.00 | 0.00 | 0.00 | 65 | 1012.4 |
| 20260903193041 | 32 | 259 | 1.6 | 6.4 | 0.00 | 0.00 | 0.00 | 64 | 1012.6 |
| 20260903191541 | 32 | 199 | 0.0 | 6.4 | 0.00 | 0.00 | 0.00 | 65 | 1012.7 |
| 20260903190039 | 31 | 288 | 0.0 | 4.8 | 0.00 | 0.00 | 0.00 | 65 | 1012.8 |
| 20260903184538 | 32 | 302 | 0.0 | 3.2 | 0.00 | 0.00 | 0.00 | 64 | 1012.8 |
| 20260903183034 | 31 | 294 | 0.0 | 3.2 | 0.00 | 0.00 | 0.00 | 66 | 1012.9 |
| 20260903181533 | 31 | 42 | 0.0 | 6.4 | 0.00 | 0.00 | 0.00 | 71 | 1013.1 |
| 20260903180034 | 30 | 346 | 1.6 | 14.5 | 0.00 | 0.00 | 0.00 | 69 | 1013.2 |
| 20260903174533 | 30 | 350 | 0.0 | 11.3 | 0.00 | 0.00 | 0.00 | 72 | 1013.4 |
| 20260903173033 | 30 | 355 | 8.0 | 17.7 | 0.00 | 0.00 | 0.00 | 68 | 1013.4 |
| 20260903171531 | 30 | 26 | 3.2 | 19.3 | 0.00 | 0.00 | 0.00 | 68 | 1013.5 |
| 20260903170030 | 30 | 36 | 6.4 | 19.3 | 0.00 | 0.00 | 0.00 | 68 | 1013.7 |
| 20260903164529 | 29 | 13 | 8.0 | 24.1 | 0.00 | 0.00 | 0.00 | 70 | 1013.6 |
| 20260903163029 | 30 | 11 | 4.8 | 14.5 | 0.00 | 0.00 | 0.00 | 71 | 1013.6 |
| 20260903161527 | 30 | 346 | 1.6 | 8.0 | 0.00 | 0.00 | 0.00 | 70 | 1013.6 |
| 20260903160026 | 31 | 313 | 3.2 | 8.0 | 0.00 | 0.00 | 0.00 | 69 | 1013.6 |
| 20260903154524 | 31 | 23 | 0.0 | 3.2 | 0.00 | 0.00 | 0.00 | 69 | 1012.8 |
| 20260903153021 | 30 | 175 | 1.6 | 8.0 | 0.00 | 0.00 | 0.00 | 69 | 1012.7 |
| 20260903151517 | 29 | 277 | 0.0 | 4.8 | 0.00 | 0.00 | 0.00 | 72 | 1012.7 |
| 20260903150021 | 29 | 195 | 0.0 | 11.3 | 0.00 | 0.00 | 0.00 | 73 | 1012.8 |
| 20260903144515 | 29 | 235 | 0.0 | 6.4 | 0.00 | 0.00 | 0.00 | 72 | 1012.8 |
| 20260903143012 | 28 | 144 | 0.0 | 4.8 | 0.00 | 0.00 | 0.00 | 74 | 1012.7 |
| 20260903141511 | 28 | 256 | 0.0 | 6.4 | 0.00 | 0.00 | 0.00 | 74 | 1012.8 |
| 20260903140007 | 27 | 229 | 1.6 | 9.7 | 0.00 | 0.00 | 0.00 | 76 | 1012.6 |
| 20260903134502 | 27 | 184 | 1.6 | 8.0 | 0.00 | 0.00 | 0.00 | 79 | 1012.6 |
| 20260903133002 | 26 | 205 | 0.0 | 11.3 | 0.00 | 0.00 | 0.00 | 80 | 1012.7 |
| 20260903131601 | 26 | 178 | 1.6 | 8.0 | 0.00 | 0.00 | 0.00 | 79 | 1012.7 |
| 20260903130059 | 26 | 223 | 0.0 | 8.0 | 0.00 | 0.00 | 0.00 | 81 | 1012.9 |
| 20260903124605 | 25 | 213 | 1.6 | 4.8 | 0.00 | 0.00 | 0.00 | 84 | 1012.9 |
| 20260903123058 | 24 | 188 | 1.6 | 6.4 | 0.00 | 0.00 | 0.00 | 86 | 1013.0 |
| 20260903121558 | 24 | 205 | 0.0 | 4.8 | 0.00 | 0.00 | 0.00 | 85 | 1013.0 |
| 20260903120104 | 25 | 199 | 0.0 | 1.6 | 0.00 | 0.00 | 0.00 | 83 | 1012.9 |
| 20260903114559 | 25 | 199 | 0.0 | 3.2 | 0.00 | 0.00 | 0.00 | 80 | 1012.8 |
| 20260903113056 | 26 | 219 | 0.0 | 3.2 | 0.00 | 0.00 | 0.00 | 80 | 1012.7 |
| 20260903111553 | 26 | 222 | 0.0 | 8.0 | 0.00 | 0.00 | 0.00 | 79 | 1012.6 |
| 20260903110056 | 26 | 237 | 0.0 | 8.0 | 0.00 | 0.00 | 0.00 | 80 | 1012.5 |
| 20260903104557 | 25 | 229 | 1.6 | 11.3 | 0.00 | 0.00 | 0.00 | 80 | 1012.6 |
| 20260903103052 | 25 | 266 | 1.6 | 8.0 | 0.00 | 0.00 | 0.00 | 81 | 1012.5 |
| 20260903101601 | 25 | 202 | 0.0 | 8.0 | 0.00 | 0.00 | 0.00 | 81 | 1012.5 |
| 20260903100049 | 25 | 200 | 1.6 | 4.8 | 0.00 | 0.00 | 0.00 | 82 | 1012.5 |
| 20260903094548 | 25 | 211 | 0.0 | 6.4 | 0.00 | 0.00 | 0.00 | 84 | 1012.6 |
| 20260903093104 | 25 | 192 | 0.0 | 8.0 | 0.00 | 0.00 | 0.00 | 85 | 1012.6 |
| 20260903091547 | 24 | 194 | 1.6 | 8.0 | 0.00 | 0.00 | 0.00 | 86 | 1012.5 |
| 20260903090048 | 24 | 202 | 1.6 | 4.8 | 0.00 | 0.00 | 0.00 | 87 | 1012.3 |
| 20260903084545 | 24 | 200 | 0.0 | 4.8 | 0.00 | 0.00 | 0.00 | 89 | 1012.3 |
| 20260903083044 | 23 | 242 | 0.0 | 3.2 | 0.00 | 0.00 | 0.00 | 92 | 1012.3 |
| 20260903081544 | 23 | 258 | 0.0 | 1.6 | 0.00 | 0.00 | 0.00 | 93 | 1012.4 |
| 20260903080043 | 23 | 259 | 0.0 | 0.0 | 0.00 | 0.00 | 0.00 | 93 | 1012.4 |
| 20260903074542 | 23 | 259 | 0.0 | 0.0 | 0.00 | 0.00 | 0.00 | 92 | 1012.3 |
| 20260903073041 | 23 | 259 | 0.0 | 0.0 | 0.00 | 0.00 | 0.00 | 92 | 1012.3 |
| 20260903071540 | 23 | 259 | 0.0 | 0.0 | 0.00 | 0.00 | 0.00 | 92 | 1012.3 |
| 20260903070038 | 23 | 259 | 0.0 | 0.0 | 0.00 | 0.00 | 0.00 | 91 | 1012.2 |
| 20260903064539 | 23 | 259 | 0.0 | 0.0 | 0.00 | 0.00 | 0.00 | 91 | 1012.3 |
| 20260903063105 | 24 | 259 | 0.0 | 0.0 | 0.00 | 0.00 | 0.00 | 90 | 1012.4 |
| 20260903061534 | 24 | 259 | 0.0 | 0.0 | 0.00 | 0.00 | 0.00 | 90 | 1012.4 |
| 20260903060031 | 25 | 259 | 0.0 | 0.0 | 0.00 | 0.00 | 0.00 | 89 | 1012.4 |
| 20260903054529 | 25 | 259 | 0.0 | 0.0 | 0.00 | 0.00 | 0.00 | 88 | 1012.5 |
| 20260903053026 | 25 | 259 | 0.0 | 0.0 | 0.00 | 0.00 | 0.00 | 87 | 1012.3 |
| 20260903051524 | 26 | 259 | 0.0 | 0.0 | 0.00 | 0.00 | 0.00 | 85 | 1012.4 |
| 20260903050019 | 26 | 259 | 0.0 | 0.0 | 0.00 | 0.00 | 0.00 | 83 | 1012.2 |
| 20260903044519 | 27 | 259 | 0.0 | 0.0 | 0.00 | 0.00 | 0.00 | 81 | 1012.1 |
| 20260903043018 | 28 | 259 | 0.0 | 0.0 | 0.00 | 0.00 | 0.00 | 77 | 1012.2 |
| 20260903041522 | 28 | 259 | 0.0 | 3.2 | 0.00 | 0.00 | 0.00 | 75 | 1012.2 |
| 20260903040017 | 28 | 269 | 0.0 | 4.8 | 0.00 | 0.00 | 0.00 | 74 | 1012.1 |
| 20260903034526 | 28 | 215 | 0.0 | 4.8 | 0.00 | 0.00 | 0.00 | 73 | 1012.1 |
| 20260903033118 | 28 | 195 | 0.0 | 4.8 | 0.00 | 0.00 | 0.00 | 73 | 1012.0 |
| 20260903031518 | 28 | 184 | 1.6 | 6.4 | 0.00 | 0.00 | 0.00 | 74 | 1011.9 |
| 20260903030016 | 28 | 201 | 1.6 | 6.4 | 0.00 | 0.00 | 0.00 | 75 | 1011.9 |
| 20260903024514 | 28 | 199 | 1.6 | 8.0 | 0.00 | 0.00 | 0.00 | 76 | 1011.9 |